INTERCOSMOS 25

Last updated on Thu Nov 21 2024 00:02:12 GMT+0000 (Coordinated Universal Time)

1 21819U 91086A 24325.52638774 .00003777 00000+0 74371-3 0 9991 2 21819 82.6062 236.2388 1497148 57.6182 316.1012 12.09640395439292
UTC large
Height (km)
Speed (km/s)
/
Latitude / Longitude
Inclination (degrees)
Orbital Period (minutes)
Azimuth
Elevation
Range (km)
Doppler Factor

Next 0 passes for location: London (51.5072 / 0.1276)

Sorry there are no passes over London.